Location: Newark
(47.5833°N, 8.1500°E)
Time: 22:50:52
(UTC+00:00)

Tiros 1 despin weight - Pass Details

Date: 31 October 2020
Orbit: 593 x 642 km, 48.2° (Epoch: 29 November)

Event Time Altitude Azimuth Distance (km) Brightness Sun altitude
Rises 02:39:03 0° 281° (W) 2,850 - -35.7°
Reaches altitude 10° 02:41:21 10° 281° (W) 1,940 - -35.4°
Maximum altitude 02:45:48 83° 196° (SSW) 605 - -34.6°
Exits shadow 02:49:15 16° 107° (ESE) 1,554 ? -34.1°
Drops below altitude 10° 02:50:13 10° 107° (ESE) 1,923 ? -33.9°
Sets 02:52:29 0° 106° (ESE) 2,822 ? -33.6°
